Location: 81360 Arifat, France
(43.7204°N, 2.3408°E)
Time: 03:04:43
(UTC+01:00)

ACS3 Solar Sail - Pass Details

Date: 15 October 2025
Orbit: 909 x 993 km, 97.3° (Epoch: 13 November)

Event Time Altitude Azimuth Distance (km) Brightness Sun altitude
Rises 05:05:52 0° 17° (NNE) 3,549 5.2 -32.7°
Reaches altitude 10° 05:08:24 10° 23° (NNE) 2,605 4.5 -32.2°
Maximum altitude 05:13:59 47° 97° (E) 1,203 2.5 -31.3°
Enters shadow 05:17:01 25° 156° (SSE) 1,747 3.1 -30.8°
